FLOCK 4P 7

导读

FLOCK 4P 7是美国(US)发射的遥感卫星,于2019年11月27日08:00送入太空,属于Planet Labs公司Flock系列卫星。该系列卫星主打高分辨率对地观测,具备低成本、组网协同观测优势,主要用于提供全球高频次光学遥感数据,服务农业监测、城市规划、灾害评估、资源勘查等领域,是小卫星规模化应用的典型代表,延续了Flock系列持续补充观测能力的组网思路,增强了全球覆盖的遥感数据获取能力。

Basic Information
目录编号:
44816
目录名称:
FLOCK 4P 7
国际标识:
2019-081N
轨道中心:
EARTH
卫星名称:
FLOCK 4P 7
卫星全名:
--
卫星状态:
已陨落 最后检测时间 2024-01-24
发射日期:
2019-11-27 UTC
国别 :
美国 (US)
星等 :
--
Orbit Information
数据来源 国际轨道数据
星历时间: 2024-01-23T03:16:06+0800
轨道信息已过期903天
半长轴: 6534.294km
偏心率: 0.0011266
轨道倾角: 97.286°
近地点辐角 272.721°
升交点赤经 104.830°
平近点角 87.280°
近地点: 148.797km
远地点: 163.521km
周期: 87.611分钟
每日圈数: 16.436327
Detailed Information
使用方式:
暂无